sat.trackr.live / text

‹ back to catalog

STARLINK-30867

NORAD 58231 · 2023-171B

PAYLOAD ACTIVE UNKNOWN

§ Identity

Operator
Country
US
Launch date
2023-11-08
Launch site
AFETR
Launch vehicle
Mass (kg)
RCS (m²)

Purposes: comms

External: N2YO · Heavens-Above · Gunter

§ Orbital elements

Epoch: 2026-05-25T05:27:27.571680Z

Period
94.27 min
Inclination
43.0044°
Eccentricity
0.0001484
Mean motion
15.27570070 rev/d
Perigee alt
482.1 km
Apogee alt
484.1 km
Semi-major
6,861.2 km
B*
3.6770e-5
RAAN
212.6784°
Arg perigee
272.7861°
Mean anomaly
87.2820°
Rev number
14,144

§ Raw data

STARLINK-308671 58231U 23171B   26145.22740245  .00000749  00000+0  36770-4 0  99932 58231  43.0044 212.6784 0001484 272.7861  87.2820 15.27570070141441

JSON: /api/v1/satellites/58231 · /tle

For live sub-satellite position, see the globe view (requires WebGL).

§ Visibility from observer

Set your observer location to see the next 7 days of passes ≥ 10°. The values pass through the URL so the page stays shareable.

No JS? Fill the form by hand. The geolocation button needs JavaScript.